ETD668 OTHH-OMAA

Flight info

Callsign ETD668
Flight time 0h 43m
Altitude 21000
Route KUPRO2E/34R KUPRO N300 KAXOB Q415 UKILI
Aircraft A320/M-SDE3FGHIRWY/LB1

Departure

Time 2026-05-06 17:09
Airport Hamad International Airport (OTHH)

Arrival

Time 2026-05-06 17:53
Airport Zayed International Airport (OMAA)
Time Latitude Longitude Altitude Speed Heading
2026-05-06 16:40 25.26372 51.61064 27 ft 2 kts 68°
2026-05-06 16:41 25.26366 51.61049 27 ft 2 kts 83°
2026-05-06 16:41 25.26369 51.61035 27 ft 2 kts 131°
2026-05-06 16:41 25.26381 51.61027 27 ft 2 kts 159°
2026-05-06 16:41 25.26396 51.61021 27 ft 2 kts 158°
2026-05-06 16:42 25.26411 51.61014 27 ft 2 kts 158°
2026-05-06 16:42 25.26421 51.61010 27 ft 0 kts 158°
2026-05-06 16:52 25.26420 51.61010 27 ft 0 kts 158°
2026-05-06 16:53 25.26413 51.61013 27 ft 2 kts 158°
2026-05-06 16:54 25.26391 51.61023 27 ft 4 kts 156°
2026-05-06 16:54 25.26357 51.61041 27 ft 6 kts 155°
2026-05-06 16:54 25.26310 51.61063 27 ft 8 kts 158°
2026-05-06 16:54 25.26249 51.61069 27 ft 10 kts 197°
2026-05-06 16:55 25.26209 51.61019 27 ft 10 kts 248°
2026-05-06 16:55 25.26180 51.60939 27 ft 12 kts 249°
2026-05-06 16:55 25.26148 51.60845 27 ft 14 kts 249°
2026-05-06 16:55 25.26108 51.60738 27 ft 15 kts 248°
2026-05-06 16:56 25.26080 51.60661 27 ft 8 kts 248°
2026-05-06 16:56 25.26058 51.60596 27 ft 10 kts 254°
2026-05-06 16:56 25.26075 51.60522 27 ft 11 kts 320°
2026-05-06 16:56 25.26149 51.60486 27 ft 13 kts 342°
2026-05-06 16:57 25.26238 51.60450 27 ft 15 kts 338°
2026-05-06 16:57 25.26338 51.60404 27 ft 17 kts 337°
2026-05-06 16:57 25.26450 51.60351 27 ft 18 kts 338°
2026-05-06 16:57 25.26574 51.60295 27 ft 20 kts 338°
2026-05-06 16:58 25.26712 51.60234 27 ft 22 kts 339°
2026-05-06 16:58 25.26857 51.60174 27 ft 24 kts 339°
2026-05-06 16:58 25.26984 51.60120 27 ft 4 kts 342°
2026-05-06 16:58 25.27004 51.60126 27 ft 4 kts 22°
2026-05-06 16:59 25.27027 51.60150 27 ft 5 kts 58°
2026-05-06 16:59 25.27046 51.60194 27 ft 7 kts 66°
2026-05-06 16:59 25.27069 51.60254 27 ft 9 kts 68°
2026-05-06 16:59 25.27095 51.60329 27 ft 12 kts 69°
2026-05-06 17:00 25.27125 51.60418 27 ft 14 kts 69°
2026-05-06 17:00 25.27162 51.60522 27 ft 16 kts 68°
2026-05-06 17:00 25.27207 51.60639 27 ft 18 kts 66°
2026-05-06 17:00 25.27256 51.60768 27 ft 19 kts 67°
2026-05-06 17:01 25.27313 51.60915 27 ft 21 kts 69°
2026-05-06 17:01 25.27367 51.61073 27 ft 23 kts 68°
2026-05-06 17:01 25.27431 51.61244 27 ft 25 kts 68°
2026-05-06 17:01 25.27479 51.61377 27 ft 15 kts 69°
2026-05-06 17:02 25.27504 51.61455 27 ft 8 kts 90°
2026-05-06 17:02 25.27484 51.61512 27 ft 9 kts 146°
2026-05-06 17:02 25.27425 51.61542 27 ft 11 kts 158°
2026-05-06 17:02 25.27349 51.61575 27 ft 13 kts 158°
2026-05-06 17:03 25.27260 51.61614 27 ft 15 kts 158°
2026-05-06 17:03 25.27158 51.61659 27 ft 17 kts 159°
2026-05-06 17:03 25.27039 51.61711 27 ft 19 kts 158°
2026-05-06 17:03 25.26909 51.61769 27 ft 21 kts 158°
2026-05-06 17:04 25.26765 51.61836 27 ft 23 kts 157°
2026-05-06 17:04 25.26609 51.61911 27 ft 26 kts 156°
2026-05-06 17:04 25.26440 51.61993 27 ft 28 kts 160°
2026-05-06 17:04 25.26256 51.62060 27 ft 25 kts 161°
2026-05-06 17:05 25.26094 51.62129 27 ft 26 kts 157°
2026-05-06 17:05 25.25918 51.62207 27 ft 28 kts 158°
2026-05-06 17:05 25.25770 51.62270 27 ft 16 kts 159°
2026-05-06 17:05 25.25657 51.62318 27 ft 18 kts 156°
2026-05-06 17:06 25.25533 51.62375 27 ft 15 kts 159°
2026-05-06 17:06 25.25484 51.62437 27 ft 12 kts 94°
2026-05-06 17:06 25.25508 51.62530 27 ft 14 kts 65°
2026-05-06 17:06 25.25569 51.62614 27 ft 15 kts 31°
2026-05-06 17:07 25.25669 51.62623 27 ft 16 kts 345°
2026-05-06 17:07 25.25771 51.62585 27 ft 0 kts 340°
2026-05-06 17:08 25.25784 51.62579 27 ft 4 kts 339°
2026-05-06 17:08 25.25842 51.62555 27 ft 19 kts 339°
2026-05-06 17:09 25.26147 51.62418 27 ft 84 kts 338°
2026-05-06 17:09 25.26905 51.62080 28 ft 151 kts 338°
2026-05-06 17:09 25.28045 51.61575 313 ft 182 kts 338°
2026-05-06 17:09 25.29262 51.61037 905 ft 193 kts 340°
2026-05-06 17:10 25.30555 51.60763 1687 ft 186 kts
2026-05-06 17:10 25.31782 51.61113 2339 ft 181 kts 20°
2026-05-06 17:10 25.32976 51.61579 2601 ft 185 kts 22°
2026-05-06 17:10 25.34231 51.62103 2719 ft 197 kts 22°
2026-05-06 17:11 25.35526 51.62692 2735 ft 213 kts 31°
2026-05-06 17:11 25.36574 51.63932 2553 ft 235 kts 66°
2026-05-06 17:11 25.36837 51.65757 2479 ft 253 kts 97°
2026-05-06 17:11 25.36222 51.67622 2558 ft 263 kts 116°
2026-05-06 17:12 25.35370 51.69447 2813 ft 265 kts 115°
2026-05-06 17:12 25.34668 51.71313 3071 ft 266 kts 107°
2026-05-06 17:12 25.34184 51.73310 3484 ft 274 kts 102°
2026-05-06 17:12 25.33760 51.75373 4258 ft 272 kts 102°
2026-05-06 17:13 25.33325 51.77402 5005 ft 272 kts 102°
2026-05-06 17:13 25.32845 51.79433 5663 ft 274 kts 103°
2026-05-06 17:13 25.32337 51.81465 6294 ft 278 kts 103°
2026-05-06 17:13 25.31819 51.83536 6920 ft 281 kts 103°
2026-05-06 17:14 25.31304 51.85652 7545 ft 284 kts 103°
2026-05-06 17:14 25.30803 51.87748 8151 ft 287 kts 102°
2026-05-06 17:14 25.30285 51.89917 8762 ft 291 kts 102°
2026-05-06 17:14 25.29763 51.92083 9360 ft 294 kts 102°
2026-05-06 17:15 25.29220 51.94322 9964 ft 298 kts 103°
2026-05-06 17:15 25.28686 51.96524 10480 ft 304 kts 103°
2026-05-06 17:15 25.28129 51.98828 10772 ft 319 kts 103°
2026-05-06 17:15 25.27531 52.01297 10988 ft 334 kts 103°
2026-05-06 17:16 25.26923 52.03811 11215 ft 348 kts 103°
2026-05-06 17:16 25.26287 52.06426 11415 ft 362 kts 103°
2026-05-06 17:16 25.25619 52.09170 11570 ft 376 kts 103°
2026-05-06 17:16 25.24954 52.11898 11817 ft 385 kts 103°
2026-05-06 17:17 25.24233 52.14853 12292 ft 388 kts 104°
2026-05-06 17:17 25.23533 52.17721 12772 ft 389 kts 104°
2026-05-06 17:17 25.22822 52.20628 13244 ft 391 kts 104°
2026-05-06 17:17 25.22112 52.23537 13702 ft 393 kts 104°
2026-05-06 17:18 25.21392 52.26483 14150 ft 396 kts 104°
2026-05-06 17:18 25.20671 52.29429 14584 ft 398 kts 104°
2026-05-06 17:18 25.19939 52.32418 15005 ft 401 kts 105°
2026-05-06 17:18 25.19215 52.35371 15409 ft 403 kts 105°
2026-05-06 17:19 25.18483 52.38351 15807 ft 406 kts 105°
2026-05-06 17:19 25.17740 52.41374 16201 ft 409 kts 105°
2026-05-06 17:19 25.16990 52.44428 16587 ft 411 kts 105°
2026-05-06 17:19 25.16236 52.47489 16966 ft 414 kts 105°
2026-05-06 17:20 25.15735 52.49526 17212 ft 416 kts 105°
2026-05-06 17:20 25.14719 52.53641 17753 ft 418 kts 105°
2026-05-06 17:20 25.13950 52.56753 18148 ft 420 kts 105°
2026-05-06 17:20 25.13374 52.58814 18387 ft 421 kts 111°
2026-05-06 17:21 25.12224 52.61710 18766 ft 422 kts 115°
2026-05-06 17:21 25.10877 52.64714 19134 ft 424 kts 118°
2026-05-06 17:21 25.09505 52.67602 19472 ft 427 kts 118°
2026-05-06 17:21 25.08124 52.70486 19796 ft 429 kts 118°
2026-05-06 17:22 25.06753 52.73417 20113 ft 432 kts 118°
2026-05-06 17:22 25.05496 52.76437 20391 ft 437 kts 111°
2026-05-06 17:22 25.04647 52.79649 20709 ft 440 kts 106°
2026-05-06 17:22 25.03915 52.82961 20859 ft 442 kts 104°
2026-05-06 17:23 25.03246 52.86260 20850 ft 443 kts 104°
2026-05-06 17:23 25.02566 52.89587 20827 ft 442 kts 104°
2026-05-06 17:23 25.01848 52.92890 20815 ft 442 kts 105°
2026-05-06 17:23 25.01092 52.96153 20808 ft 442 kts 106°
2026-05-06 17:24 25.00317 52.99400 20802 ft 442 kts 106°
2026-05-06 17:24 24.99528 53.02739 20798 ft 442 kts 106°
2026-05-06 17:24 24.98771 53.06022 20796 ft 442 kts 105°
2026-05-06 17:24 24.98034 53.09298 20795 ft 442 kts 105°
2026-05-06 17:25 24.97289 53.12616 20794 ft 442 kts 105°
2026-05-06 17:25 24.96543 53.15890 20794 ft 442 kts 105°
2026-05-06 17:25 24.95800 53.19112 20793 ft 442 kts 105°
2026-05-06 17:25 24.95021 53.22464 20793 ft 442 kts 106°
2026-05-06 17:26 24.94261 53.25734 20792 ft 441 kts 105°
2026-05-06 17:26 24.93496 53.29034 20795 ft 442 kts 105°
2026-05-06 17:26 24.92760 53.32222 20796 ft 442 kts 105°
2026-05-06 17:26 24.92002 53.35509 20797 ft 442 kts 105°
2026-05-06 17:27 24.91239 53.38810 20798 ft 442 kts 105°
2026-05-06 17:27 24.90288 53.42088 20782 ft 440 kts 114°
2026-05-06 17:27 24.88953 53.45059 20802 ft 439 kts 119°
2026-05-06 17:27 24.87457 53.47998 20809 ft 439 kts 121°
2026-05-06 17:28 24.85908 53.50871 20809 ft 439 kts 122°
2026-05-06 17:28 24.84332 53.53799 20807 ft 439 kts 121°
2026-05-06 17:28 24.82786 53.56777 20806 ft 439 kts 120°
2026-05-06 17:28 24.81299 53.59753 20806 ft 439 kts 120°
2026-05-06 17:29 24.79858 53.62688 20806 ft 439 kts 120°
2026-05-06 17:29 24.78408 53.65609 20807 ft 439 kts 120°
2026-05-06 17:29 24.76895 53.68605 20807 ft 439 kts 120°
2026-05-06 17:29 24.75417 53.71490 20808 ft 439 kts 121°
2026-05-06 17:30 24.73896 53.74447 20808 ft 440 kts 121°
2026-05-06 17:30 24.72414 53.77342 20808 ft 440 kts 120°
2026-05-06 17:30 24.70916 53.80289 20811 ft 441 kts 120°
2026-05-06 17:30 24.69417 53.83246 20810 ft 440 kts 120°
2026-05-06 17:31 24.67907 53.86223 20811 ft 440 kts 120°
2026-05-06 17:31 24.66417 53.89150 20810 ft 440 kts 120°
2026-05-06 17:31 24.64913 53.92098 20809 ft 441 kts 120°
2026-05-06 17:31 24.63669 53.95146 20769 ft 443 kts 108°
2026-05-06 17:32 24.63078 53.98489 20805 ft 444 kts 99°
2026-05-06 17:32 24.62735 54.01870 20822 ft 446 kts 96°
2026-05-06 17:32 24.62479 54.05254 20815 ft 446 kts 96°
2026-05-06 17:32 24.62203 54.08675 20807 ft 445 kts 96°
2026-05-06 17:33 24.61861 54.12028 20802 ft 444 kts 98°
2026-05-06 17:33 24.61449 54.15397 20763 ft 438 kts 99°
2026-05-06 17:33 24.61034 54.18612 20670 ft 430 kts 99°
2026-05-06 17:33 24.60629 54.21853 20540 ft 420 kts 98°
2026-05-06 17:34 24.60261 54.25026 20388 ft 408 kts 98°
2026-05-06 17:34 24.59929 54.28075 20213 ft 395 kts 97°
2026-05-06 17:34 24.59611 54.31021 19819 ft 389 kts 98°
2026-05-06 17:34 24.59237 54.33987 19098 ft 391 kts 101°
2026-05-06 17:35 24.58687 54.36902 18410 ft 392 kts 103°
2026-05-06 17:35 24.58082 54.39799 18045 ft 384 kts 103°
2026-05-06 17:35 24.57469 54.42621 17757 ft 375 kts 103°
2026-05-06 17:36 24.56289 54.48164 16434 ft 377 kts 103°
2026-05-06 17:36 24.55720 54.51003 15721 ft 379 kts 102°
2026-05-06 17:36 24.55174 54.53799 15304 ft 372 kts 102°
2026-05-06 17:36 24.54636 54.56557 15065 ft 361 kts 102°
2026-05-06 17:37 24.54105 54.59231 14625 ft 357 kts 102°
2026-05-06 17:37 24.53565 54.61905 13991 ft 358 kts 102°
2026-05-06 17:37 24.53024 54.64560 13590 ft 353 kts 102°
2026-05-06 17:37 24.52491 54.67177 13405 ft 341 kts 102°
2026-05-06 17:38 24.51987 54.69662 13270 ft 329 kts 102°
2026-05-06 17:38 24.51301 54.72012 13143 ft 318 kts 117°
2026-05-06 17:38 24.50108 54.74007 12998 ft 308 kts 126°
2026-05-06 17:38 24.48783 54.75820 12662 ft 306 kts 129°
2026-05-06 17:39 24.47383 54.77626 12177 ft 309 kts 129°
2026-05-06 17:39 24.46027 54.79395 11952 ft 302 kts 128°
2026-05-06 17:39 24.44712 54.81184 11832 ft 291 kts 127°
2026-05-06 17:39 24.43508 54.82882 11725 ft 282 kts 126°
2026-05-06 17:40 24.42323 54.84582 11403 ft 280 kts 126°
2026-05-06 17:40 24.41117 54.86305 11018 ft 281 kts 126°
2026-05-06 17:40 24.39916 54.87996 10669 ft 281 kts 127°
2026-05-06 17:40 24.38710 54.89678 10355 ft 279 kts 127°
2026-05-06 17:41 24.37532 54.91321 10018 ft 278 kts 127°
2026-05-06 17:41 24.36328 54.93007 9718 ft 276 kts 127°
2026-05-06 17:41 24.35154 54.94655 9388 ft 275 kts 127°
2026-05-06 17:41 24.33975 54.96311 9091 ft 273 kts 127°
2026-05-06 17:42 24.32813 54.97939 8765 ft 272 kts 127°
2026-05-06 17:42 24.31650 54.99565 8461 ft 270 kts 127°
2026-05-06 17:42 24.30490 55.01186 8141 ft 269 kts 127°
2026-05-06 17:42 24.29342 55.02793 7841 ft 267 kts 127°
2026-05-06 17:43 24.28194 55.04396 7527 ft 266 kts 127°
2026-05-06 17:43 24.27060 55.05983 7231 ft 264 kts 127°
2026-05-06 17:43 24.25764 55.07371 7019 ft 259 kts 149°
2026-05-06 17:43 24.24068 55.07880 6876 ft 252 kts 180°
2026-05-06 17:44 24.22437 55.07365 6685 ft 247 kts 212°
2026-05-06 17:44 24.21226 55.06085 6471 ft 243 kts 229°
2026-05-06 17:44 24.20264 55.04600 6373 ft 233 kts 242°
2026-05-06 17:44 24.19739 55.02940 6140 ft 229 kts 261°
2026-05-06 17:45 24.19856 55.01200 5798 ft 228 kts 291°
2026-05-06 17:45 24.20685 54.99765 5483 ft 225 kts 311°
2026-05-06 17:45 24.21756 54.98493 5155 ft 224 kts 313°
2026-05-06 17:45 24.22699 54.97166 4815 ft 225 kts 303°
2026-05-06 17:46 24.23441 54.95657 4477 ft 225 kts 293°
2026-05-06 17:46 24.24007 54.94071 4165 ft 223 kts 288°
2026-05-06 17:46 24.24507 54.92462 3841 ft 223 kts 287°
2026-05-06 17:46 24.25083 54.90894 3514 ft 223 kts 299°
2026-05-06 17:47 24.25950 54.89484 3205 ft 222 kts 306°
2026-05-06 17:47 24.26894 54.88166 2898 ft 220 kts 308°
2026-05-06 17:47 24.27820 54.86906 2604 ft 219 kts 308°
2026-05-06 17:47 24.28777 54.85581 2492 ft 208 kts 307°
2026-05-06 17:48 24.29627 54.84378 2488 ft 192 kts 306°
2026-05-06 17:48 24.30399 54.83264 2467 ft 177 kts 307°
2026-05-06 17:48 24.31162 54.82226 2480 ft 169 kts 307°
2026-05-06 17:48 24.31806 54.81166 2501 ft 169 kts 299°
2026-05-06 17:49 24.32494 54.80130 2501 ft 169 kts 313°
2026-05-06 17:49 24.33299 54.79183 2507 ft 169 kts 309°
2026-05-06 17:49 24.34025 54.78184 2531 ft 164 kts 307°
2026-05-06 17:49 24.34712 54.77216 2446 ft 159 kts 307°
2026-05-06 17:50 24.35388 54.76264 2257 ft 158 kts 307°
2026-05-06 17:50 24.36083 54.75333 2053 ft 158 kts 308°
2026-05-06 17:50 24.36748 54.74373 1846 ft 157 kts 307°
2026-05-06 17:50 24.37396 54.73415 1641 ft 157 kts 306°
2026-05-06 17:51 24.38082 54.72470 1429 ft 157 kts 306°
2026-05-06 17:51 24.38733 54.71519 1223 ft 157 kts 306°
2026-05-06 17:51 24.39394 54.70581 1022 ft 155 kts 310°
2026-05-06 17:51 24.40056 54.69688 815 ft 149 kts 309°
2026-05-06 17:52 24.40639 54.68734 616 ft 149 kts 306°
2026-05-06 17:52 24.41079 54.68158 476 ft 148 kts 312°
2026-05-06 17:52 24.41953 54.67009 248 ft 147 kts 308°
2026-05-06 17:52 24.42376 54.66403 136 ft 147 kts 307°
2026-05-06 17:53 24.42955 54.65593 102 ft 107 kts 311°
2026-05-06 17:53 24.43228 54.65213 102 ft 37 kts 306°
2026-05-06 17:53 24.43370 54.64991 102 ft 32 kts 299°
2026-05-06 17:53 24.43418 54.64697 102 ft 29 kts 275°
2026-05-06 17:54 24.43435 54.64552 102 ft 27 kts 280°
2026-05-06 17:54 24.43434 54.64417 102 ft 16 kts 238°
2026-05-06 17:54 24.43348 54.64349 102 ft 16 kts 205°
2026-05-06 17:54 24.43275 54.64271 102 ft 14 kts 213°
2026-05-06 17:55 24.43252 54.64253 102 ft 4 kts 218°
2026-05-06 17:55 24.43247 54.64249 102 ft 1 kts 218°
2026-05-06 17:55 24.43240 54.64243 102 ft 2 kts 219°
2026-05-06 17:55 24.43228 54.64231 102 ft 3 kts 224°
2026-05-06 17:56 24.43211 54.64211 102 ft 4 kts 227°
2026-05-06 17:56 24.43192 54.64192 102 ft 3 kts 220°
2026-05-06 17:56 24.43180 54.64181 102 ft 0 kts 218°
2026-05-06 17:56 24.43177 54.64179 102 ft 0 kts 217°